Miscellaneous Local Product
Issued by NWS North Platte, NE

Home | Current Version | Previous Version | Text Only | Print | Product List | Glossary On
Versions: 1 2 3 4 5 6 7 8 9 10 11 12 13 14 15 16 17 18 19 20 21 22 23 24 25 26 27 28 29 30 31 32 33 34 35 36 37 38 39 40 41 42 43 44 45 46 47 48 49 50
341
AXUS43 KLBF 281910
MISLBF


WESTERN AND NORTH CENTRAL NEBRASKA HOURLY WEATHER ROUNDUP
NATIONAL WEATHER SERVICE NORTH PLATTE NE
200 PM CDT THU JUL 28 2016

NOTE: "FAIR" INDICATES FEW OR NO CLOUDS BELOW 12,000 FEET WITH NO
SIGNIFICANT WEATHER AND/OR OBSTRUCTIONS TO VISIBILITY.

NOTE: STATIONS NOT REPORTING VARIABLES SUCH AS SKY/WEATHER OR
PRESSURE ARE PROVIDED BY RAWS AND APRS NETWORKS AND ARE NOT UNDER
NATIONAL WEATHER SERVICE QUALITY CONTROL.

...OBSERVATIONS IN AND NEAR THE EASTERN PANHANDLE OF NEBRASKA...

CITY           SKY/WX    TMP DP  RH WIND       PRES   REMARKS
PINE RIDGE     MOSUNNY   70  59  68 CALM      30.14F
CHADRON        SUNNY     72  58  61 VRB3      30.15S
ALLIANCE       CLOUDY    69  58  67 VRB3      30.17F
SIDNEY         CLOUDY    71  55  56 E17       30.20F
CRESCENT LAKE    N/A     68  60  74 CALM        N/A
$$

...OBSERVATIONS IN NORTHERN NEBRASKA AND FAR SOUTHERN SOUTH DAKOTA...

CITY           SKY/WX    TMP DP  RH WIND       PRES   REMARKS
WINNER         CLOUDY    77  63  61 S7        30.10S
VALENTINE      PTSUNNY   73  63  70 S6        30.12F
THEDFORD       RAIN      66  64  91 NW3       30.16F
AINSWORTH      PTSUNNY   72  65  80 CALM      30.13F
O`NEILL        PTSUNNY   77  62  58 N6        30.09F
ORD            PTSUNNY   81  63  54 NE10      30.06S
BROKEN BOW     CLOUDY    75  67  76 N6        30.12R
VALENTINE NWR    N/A     70  62  76 W8          N/A
BUTTE            N/A     76  59  55 CALM        N/A
HALSEY           N/A     71  61  71 W6          N/A
EWING            N/A     77  65  67 N3          N/A
$$

...OBSERVATIONS IN SOUTHWEST NEBRASKA AND FAR NORTHEAST COLORADO...

CITY           SKY/WX    TMP DP  RH WIND       PRES   REMARKS
WRAY           CLOUDY    77  59  53 N9        30.17
HOLYOKE        FAIR      68  63  83 NE16      30.20F
IMPERIAL       TSTM      62  60  93 N22G33    30.17S FOG
OGALLALA       LGT RAIN  65  60  84 E3        30.15F
NORTH PLATTE   LGT RAIN  67  63  87 N7        30.16R
MCCOOK         CLOUDY    79  65  62 E8        30.05F
LEXINGTON      LGT RAIN  70  65  82 N9G21     30.13R
STAPLETON        N/A     66  61  85 CALM        N/A
GOTHENBURG       N/A     70  61  73 CALM        N/A
CALLAWAY         N/A     69  64  85 N15         N/A
$$

...OBSERVATIONS IN CENTRAL LINCOLN COUNTY AREA...

CITY           SKY/WX    TMP DP  RH WIND       PRES   REMARKS
N.P. AIRPORT   LGT RAIN  67  63  87 N7        30.16R
N.P. DOWNTOWN    N/A     65  62  91 NW5         N/A
N.P. SOUTHEAST   N/A     65  62  91 MISG        N/A
N.P. HILLCREST   N/A     65  63  92 N7          N/A
$$

...SOME OBSERVATIONS FROM AROUND THE REGION...

CITY           SKY/WX    TMP DP  RH WIND       PRES   REMARKS
DENVER         MOSUNNY   79  57  46 N12G23    30.21R
LARAMIE        SUNNY     73  49  42 N6        30.32F
CHEYENNE       CLOUDY    64  54  69 NE14G20   30.29S
SCOTTSBLUFF    SUNNY     72  57  59 E5        30.19R
RAPID CITY     CLOUDY    69  57  65 NW9       30.15R
BISMARCK       CLOUDY    71  56  58 NE6       30.15S
PIERRE         PTSUNNY   80  56  43 S12       30.07F
SIOUX FALLS    PTSUNNY   75  63  66 N9        30.05F
OMAHA          MOSUNNY   84  65  52 N14       30.01S
GRAND ISLAND   MOSUNNY   83  62  49 E8        30.04F
KANSAS CITY    PTSUNNY   87  70  56 N8        29.96F HX  92
WICHITA        PTSUNNY   91  72  53 NE14G21   29.96F HX  98
OKLAHOMA CITY  PTSUNNY   92  71  50 CALM      29.97F HX  98
DALLAS         MOSUNNY   93  69  45 SW7       29.94F HX  98
AMARILLO       SUNNY     89  56  32 E9        30.11F
DODGE CITY     SUNNY     88  59  37 SE5       30.06S
HAYS           CLOUDY    84  64  51 N5        30.06R
GOODLAND       SUNNY     80  62  54 E10       30.10F
$$




USA.gov is the U.S. government's official web portal to all federal, state and local government web resources and services.